Time,TemperatureF,DewpointF,PressureIn,WindDirection,WindDirectionDegrees,WindSpeedMPH,WindSpeedGustMPH,Humidity,HourlyPrecipIn,Conditions,Clouds,dailyrainin,SoftwareType,DateUTC
2013-12-25 00:01:00,19.0,13.9,30.44,ESE,112,0.0,0.0,80,0.00,,---,0.00,VWS V14.00,2013-12-25 06:01:00,
2013-12-25 00:06:00,19.0,13.9,30.44,SE,135,0.0,0.0,80,0.00,,---,0.00,VWS V14.00,2013-12-25 06:06:00,
2013-12-25 00:11:00,19.0,13.9,30.45,SSE,158,0.0,0.0,80,0.00,,---,0.00,VWS V14.00,2013-12-25 06:11:00,
2013-12-25 00:16:00,19.0,13.9,30.45,SE,135,0.0,0.0,80,0.00,,---,0.00,VWS V14.00,2013-12-25 06:16:00,
2013-12-25 00:21:00,19.0,13.9,30.44,SE,135,0.0,0.0,80,0.00,,---,0.00,VWS V14.00,2013-12-25 06:21:00,
2013-12-25 00:26:00,19.0,13.9,30.44,ESE,112,0.0,0.0,80,0.00,,---,0.00,VWS V14.00,2013-12-25 06:26:00,
2013-12-25 00:31:00,19.0,13.9,30.44,SSE,158,0.0,0.0,80,0.00,,---,0.00,VWS V14.00,2013-12-25 06:31:00,
2013-12-25 00:36:00,19.0,14.1,30.44,ESE,112,0.0,0.0,81,0.00,,---,0.00,VWS V14.00,2013-12-25 06:36:00,
2013-12-25 00:41:00,19.0,14.1,30.44,SE,135,0.0,0.0,81,0.00,,---,0.00,VWS V14.00,2013-12-25 06:41:00,
2013-12-25 00:46:00,19.0,14.1,30.43,SE,135,0.0,0.0,81,0.00,,---,0.00,VWS V14.00,2013-12-25 06:46:00,
2013-12-25 00:51:00,19.0,14.1,30.43,SSE,158,0.0,0.0,81,0.00,,---,0.00,VWS V14.00,2013-12-25 06:51:00,
2013-12-25 00:56:00,19.0,14.4,30.43,SE,135,0.0,0.0,82,0.00,,---,0.00,VWS V14.00,2013-12-25 06:56:00,
2013-12-25 01:01:00,19.0,14.4,30.43,SSE,158,0.0,0.0,82,0.00,,---,0.00,VWS V14.00,2013-12-25 07:01:00,
2013-12-25 01:06:00,19.0,14.4,30.43,SE,135,0.0,0.0,82,0.00,,---,0.00,VWS V14.00,2013-12-25 07:06:00,
2013-12-25 01:11:00,20.0,15.1,30.43,SSE,158,0.0,0.0,81,0.00,,---,0.00,VWS V14.00,2013-12-25 07:11:00,
2013-12-25 01:16:00,20.0,15.1,30.43,SE,135,0.0,0.0,81,0.00,,---,0.00,VWS V14.00,2013-12-25 07:16:00,
2013-12-25 01:25:00,20.0,14.8,30.43,SSE,158,0.0,0.0,80,0.00,,---,0.00,VWS V14.00,2013-12-25 07:25:00,
2013-12-25 01:30:00,20.0,14.8,30.43,South,180,0.0,0.0,80,0.00,,---,0.00,VWS V14.00,2013-12-25 07:30:00,
2013-12-25 01:35:00,20.0,14.8,30.43,SSE,158,0.0,0.0,80,0.00,,---,0.00,VWS V14.00,2013-12-25 07:35:00,
2013-12-25 01:40:00,20.0,14.8,30.44,SSE,158,0.0,0.0,80,0.00,,---,0.00,VWS V14.00,2013-12-25 07:40:00,
2013-12-25 01:45:00,20.0,14.6,30.44,SSE,158,0.0,0.0,79,0.00,,---,0.00,VWS V14.00,2013-12-25 07:45:00,
2013-12-25 01:50:00,20.0,14.6,30.44,SSE,158,0.0,0.0,79,0.00,,---,0.00,VWS V14.00,2013-12-25 07:50:00,
2013-12-25 01:55:00,20.0,14.3,30.44,SSE,158,0.0,0.0,78,0.00,,---,0.00,VWS V14.00,2013-12-25 07:55:00,
2013-12-25 02:00:00,20.0,14.3,30.44,SSE,158,0.0,0.0,78,0.00,,---,0.00,VWS V14.00,2013-12-25 08:00:00,
2013-12-25 02:05:00,21.0,14.9,30.44,SSE,158,0.0,0.0,77,0.00,,---,0.00,VWS V14.00,2013-12-25 08:05:00,
2013-12-25 02:10:00,20.0,14.0,30.44,South,180,0.0,0.0,77,0.00,,---,0.00,VWS V14.00,2013-12-25 08:10:00,
2013-12-25 02:15:00,20.0,14.0,30.44,SE,135,0.0,0.0,77,0.00,,---,0.00,VWS V14.00,2013-12-25 08:15:00,
2013-12-25 02:20:00,20.0,14.0,30.44,SSE,158,0.0,0.0,77,0.00,,---,0.00,VWS V14.00,2013-12-25 08:20:00,
2013-12-25 02:25:00,20.0,14.0,30.44,SSE,158,0.0,0.0,77,0.00,,---,0.00,VWS V14.00,2013-12-25 08:25:00,
2013-12-25 02:30:00,20.0,14.0,30.44,SSE,158,0.0,0.0,77,0.00,,---,0.00,VWS V14.00,2013-12-25 08:30:00,
2013-12-25 02:35:00,20.0,14.0,30.43,SE,135,0.0,0.0,77,0.00,,---,0.00,VWS V14.00,2013-12-25 08:35:00,
2013-12-25 02:40:00,21.0,14.9,30.43,SSE,158,0.0,0.0,77,0.00,,---,0.00,VWS V14.00,2013-12-25 08:40:00,
2013-12-25 02:45:00,21.0,14.6,30.44,SSE,158,0.0,0.0,76,0.00,,---,0.00,VWS V14.00,2013-12-25 08:45:00,
2013-12-25 02:50:00,21.0,14.6,30.43,SSE,158,0.0,0.0,76,0.00,,---,0.00,VWS V14.00,2013-12-25 08:50:00,
2013-12-25 02:55:00,21.0,14.6,30.43,SE,135,0.0,0.0,76,0.00,,---,0.00,VWS V14.00,2013-12-25 08:55:00,
2013-12-25 03:00:00,21.0,14.6,30.44,SSE,158,0.0,0.0,76,0.00,,---,0.00,VWS V14.00,2013-12-25 09:00:00,
2013-12-25 03:05:00,21.0,14.3,30.43,SSE,158,0.0,0.0,75,0.00,,---,0.00,VWS V14.00,2013-12-25 09:05:00,
2013-12-25 03:10:00,21.0,14.6,30.44,SSE,158,0.0,0.0,76,0.00,,---,0.00,VWS V14.00,2013-12-25 09:10:00,
2013-12-25 03:15:00,21.0,14.3,30.43,SSE,158,0.0,0.0,75,0.00,,---,0.00,VWS V14.00,2013-12-25 09:15:00,
2013-12-25 03:20:00,21.0,14.3,30.43,SE,135,0.0,0.0,75,0.00,,---,0.00,VWS V14.00,2013-12-25 09:20:00,
2013-12-25 03:25:00,21.0,14.3,30.43,SE,135,0.0,0.0,75,0.00,,---,0.00,VWS V14.00,2013-12-25 09:25:00,
2013-12-25 03:30:00,21.0,14.3,30.43,SSE,158,0.0,0.0,75,0.00,,---,0.00,VWS V14.00,2013-12-25 09:30:00,
2013-12-25 03:35:00,21.0,14.6,30.43,South,180,0.0,0.0,76,0.00,,---,0.00,VWS V14.00,2013-12-25 09:35:00,
2013-12-25 03:40:00,21.0,14.6,30.44,SSE,158,0.0,0.0,76,0.00,,---,0.00,VWS V14.00,2013-12-25 09:40:00,
2013-12-25 03:45:00,21.0,14.6,30.45,SSE,158,0.0,0.0,76,0.00,,---,0.00,VWS V14.00,2013-12-25 09:45:00,
2013-12-25 03:50:00,21.0,14.6,30.45,SSE,158,0.0,0.0,76,0.00,,---,0.00,VWS V14.00,2013-12-25 09:50:00,
2013-12-25 03:55:00,20.0,13.7,30.44,SSE,158,0.0,0.0,76,0.00,,---,0.00,VWS V14.00,2013-12-25 09:55:00,
2013-12-25 04:00:00,20.0,13.7,30.44,SE,135,0.0,0.0,76,0.00,,---,0.00,VWS V14.00,2013-12-25 10:00:00,
2013-12-25 04:05:00,20.0,14.0,30.45,SE,135,0.0,0.0,77,0.00,,---,0.00,VWS V14.00,2013-12-25 10:05:00,
2013-12-25 04:10:00,20.0,14.0,30.44,SSE,158,0.0,0.0,77,0.00,,---,0.00,VWS V14.00,2013-12-25 10:10:00,
2013-12-25 04:15:00,20.0,14.0,30.44,SSE,158,0.0,0.0,77,0.00,,---,0.00,VWS V14.00,2013-12-25 10:15:00,
2013-12-25 04:25:00,20.0,14.0,30.44,ESE,112,0.0,0.0,77,0.00,,---,0.00,VWS V14.00,2013-12-25 10:25:00,
2013-12-25 04:30:00,20.0,14.3,30.44,SSE,158,0.0,0.0,78,0.00,,---,0.00,VWS V14.00,2013-12-25 10:30:00,
2013-12-25 04:40:00,20.0,14.3,30.43,ESE,112,0.0,0.0,78,0.00,,---,0.00,VWS V14.00,2013-12-25 10:40:00,
2013-12-25 04:45:00,20.0,14.3,30.43,SE,135,0.0,0.0,78,0.00,,---,0.00,VWS V14.00,2013-12-25 10:45:00,
2013-12-25 04:50:00,20.0,14.3,30.43,SE,135,0.0,0.0,78,0.00,,---,0.00,VWS V14.00,2013-12-25 10:50:00,
2013-12-25 04:55:00,20.0,14.6,30.43,SE,135,0.0,0.0,79,0.00,,---,0.00,VWS V14.00,2013-12-25 10:55:00,
2013-12-25 05:00:00,20.0,14.6,30.43,SE,135,0.0,0.0,79,0.00,,---,0.00,VWS V14.00,2013-12-25 11:00:00,
2013-12-25 05:05:00,19.0,13.6,30.43,SE,135,0.0,0.0,79,0.00,,---,0.00,VWS V14.00,2013-12-25 11:05:00,
2013-12-25 05:10:00,19.0,13.6,30.43,ESE,112,0.0,0.0,79,0.00,,---,0.00,VWS V14.00,2013-12-25 11:10:00,
2013-12-25 05:15:00,19.0,13.6,30.43,SE,135,0.0,0.0,79,0.00,,---,0.00,VWS V14.00,2013-12-25 11:15:00,
2013-12-25 05:20:00,19.0,13.9,30.43,SE,135,0.0,0.0,80,0.00,,---,0.00,VWS V14.00,2013-12-25 11:20:00,
2013-12-25 05:30:00,20.0,14.8,30.43,SE,135,0.0,0.0,80,0.00,,---,0.00,VWS V14.00,2013-12-25 11:30:00,
2013-12-25 05:35:00,20.0,14.8,30.43,SSE,158,0.0,0.0,80,0.00,,---,0.00,VWS V14.00,2013-12-25 11:35:00,
2013-12-25 05:40:00,20.0,14.8,30.43,SE,135,0.0,0.0,80,0.00,,---,0.00,VWS V14.00,2013-12-25 11:40:00,
2013-12-25 05:50:00,20.0,14.8,30.43,SE,135,0.0,0.0,80,0.00,,---,0.00,VWS V14.00,2013-12-25 11:50:00,
2013-12-25 05:55:00,20.0,14.6,30.43,SE,135,0.0,0.0,79,0.00,,---,0.00,VWS V14.00,2013-12-25 11:55:00,
2013-12-25 06:00:00,20.0,14.6,30.43,SE,135,0.0,0.0,79,0.00,,---,0.00,VWS V14.00,2013-12-25 12:00:00,
2013-12-25 06:05:00,20.0,14.8,30.43,SSE,158,0.0,0.0,80,0.00,,---,0.00,VWS V14.00,2013-12-25 12:05:00,
2013-12-25 06:10:00,20.0,14.8,30.43,ESE,112,0.0,0.0,80,0.00,,---,0.00,VWS V14.00,2013-12-25 12:10:00,
2013-12-25 06:15:00,20.0,14.8,30.43,SE,135,0.0,0.0,80,0.00,,---,0.00,VWS V14.00,2013-12-25 12:15:00,
2013-12-25 06:20:00,20.0,14.8,30.43,SSE,158,0.0,0.0,80,0.00,,---,0.00,VWS V14.00,2013-12-25 12:20:00,
2013-12-25 06:25:00,20.0,14.8,30.43,SSE,158,0.0,0.0,80,0.00,,---,0.00,VWS V14.00,2013-12-25 12:25:00,
2013-12-25 06:30:00,20.0,14.6,30.42,SSE,158,0.0,0.0,79,0.00,,---,0.00,VWS V14.00,2013-12-25 12:30:00,
2013-12-25 06:35:00,20.0,14.6,30.42,SE,135,0.0,0.0,79,0.00,,---,0.00,VWS V14.00,2013-12-25 12:35:00,
2013-12-25 06:40:00,21.0,15.2,30.42,SE,135,0.0,0.0,78,0.00,,---,0.00,VWS V14.00,2013-12-25 12:40:00,
2013-12-25 06:50:00,21.0,15.2,30.42,SE,135,0.0,0.0,78,0.00,,---,0.00,VWS V14.00,2013-12-25 12:50:00,
2013-12-25 06:55:00,21.0,15.2,30.42,SSE,158,0.0,0.0,78,0.00,,---,0.00,VWS V14.00,2013-12-25 12:55:00,
2013-12-25 07:00:00,21.0,14.9,30.42,SSE,158,0.0,0.0,77,0.00,,---,0.00,VWS V14.00,2013-12-25 13:00:00,
2013-12-25 07:05:00,22.0,15.9,30.42,SSE,158,0.0,0.0,77,0.00,,---,0.00,VWS V14.00,2013-12-25 13:05:00,
2013-12-25 07:10:00,22.0,15.9,30.43,SSE,158,0.0,0.0,77,0.00,,---,0.00,VWS V14.00,2013-12-25 13:10:00,
2013-12-25 07:15:00,22.0,15.9,30.43,SSE,158,0.0,0.0,77,0.00,,---,0.00,VWS V14.00,2013-12-25 13:15:00,
2013-12-25 07:20:00,22.0,15.6,30.42,SSE,158,0.0,0.0,76,0.00,,---,0.00,VWS V14.00,2013-12-25 13:20:00,
2013-12-25 07:25:00,22.0,15.6,30.43,SE,135,0.0,0.0,76,0.00,,---,0.00,VWS V14.00,2013-12-25 13:25:00,
2013-12-25 07:30:00,23.0,16.6,30.42,SSE,158,0.0,0.0,76,0.00,,---,0.00,VWS V14.00,2013-12-25 13:30:00,
2013-12-25 07:35:00,23.0,16.0,30.43,SSE,158,0.0,0.0,74,0.00,,---,0.00,VWS V14.00,2013-12-25 13:35:00,
2013-12-25 07:40:00,23.0,16.0,30.42,SSE,158,0.0,0.0,74,0.00,,---,0.00,VWS V14.00,2013-12-25 13:40:00,
2013-12-25 07:45:00,23.0,16.0,30.42,SSE,158,0.0,0.0,74,0.00,,---,0.00,VWS V14.00,2013-12-25 13:45:00,
2013-12-25 07:50:00,23.0,16.0,30.42,SSE,158,0.0,0.0,74,0.00,,---,0.00,VWS V14.00,2013-12-25 13:50:00,
2013-12-25 07:55:00,24.0,16.6,30.42,SE,135,0.0,0.0,73,0.00,,---,0.00,VWS V14.00,2013-12-25 13:55:00,
2013-12-25 08:00:00,24.0,16.6,30.42,SSE,158,0.0,0.0,73,0.00,,---,0.00,VWS V14.00,2013-12-25 14:00:00,
2013-12-25 08:05:00,24.0,16.6,30.42,SE,135,0.0,0.0,73,0.00,,---,0.00,VWS V14.00,2013-12-25 14:05:00,
2013-12-25 08:10:00,24.0,16.6,30.42,SSE,158,0.0,0.0,73,0.00,,---,0.00,VWS V14.00,2013-12-25 14:10:00,
2013-12-25 08:15:00,24.0,16.6,30.42,SSE,158,0.0,0.0,73,0.00,,---,0.00,VWS V14.00,2013-12-25 14:15:00,
2013-12-25 08:20:00,24.0,16.6,30.42,SSW,202,0.0,0.0,73,0.00,,---,0.00,VWS V14.00,2013-12-25 14:20:00,
2013-12-25 08:25:00,24.0,16.9,30.42,SSE,158,0.0,0.0,74,0.00,,---,0.00,VWS V14.00,2013-12-25 14:25:00,
2013-12-25 08:30:00,24.0,16.9,30.42,South,180,0.0,0.0,74,0.00,,---,0.00,VWS V14.00,2013-12-25 14:30:00,
2013-12-25 08:35:00,24.0,17.2,30.42,SSE,158,0.0,0.0,75,0.00,,---,0.00,VWS V14.00,2013-12-25 14:35:00,
2013-12-25 08:40:00,24.0,17.2,30.42,SSE,158,0.0,0.0,75,0.00,,---,0.00,VWS V14.00,2013-12-25 14:40:00,
2013-12-25 08:45:00,24.0,17.2,30.42,SSE,158,0.0,0.0,75,0.00,,---,0.00,VWS V14.00,2013-12-25 14:45:00,
2013-12-25 08:50:00,25.0,18.2,30.42,SSE,158,0.0,0.0,75,0.00,,---,0.00,VWS V14.00,2013-12-25 14:50:00,
2013-12-25 08:55:00,25.0,17.9,30.42,SSE,158,0.0,0.0,74,0.00,,---,0.00,VWS V14.00,2013-12-25 14:55:00,
2013-12-25 09:00:00,25.0,17.9,30.42,South,180,0.0,0.0,74,0.00,,---,0.00,VWS V14.00,2013-12-25 15:00:00,
2013-12-25 09:05:00,26.0,18.9,30.42,South,180,0.0,0.0,74,0.00,,---,0.00,VWS V14.00,2013-12-25 15:05:00,
2013-12-25 09:10:00,26.0,18.9,30.41,SSE,158,0.0,0.0,74,0.00,,---,0.00,VWS V14.00,2013-12-25 15:10:00,
2013-12-25 09:15:00,26.0,18.9,30.42,SSE,158,0.0,0.0,74,0.00,,---,0.00,VWS V14.00,2013-12-25 15:15:00,
2013-12-25 09:20:00,27.0,19.8,30.42,SSE,158,0.0,0.0,74,0.00,,---,0.00,VWS V14.00,2013-12-25 15:20:00,
2013-12-25 09:25:00,28.0,19.8,30.41,South,180,0.0,0.0,71,0.00,,---,0.00,VWS V14.00,2013-12-25 15:25:00,
2013-12-25 09:30:00,28.0,19.8,30.41,SSW,202,0.0,0.0,71,0.00,,---,0.00,VWS V14.00,2013-12-25 15:30:00,
2013-12-25 09:40:00,28.0,19.2,30.40,South,180,0.0,0.0,69,0.00,,---,0.00,VWS V14.00,2013-12-25 15:40:00,
2013-12-25 09:45:00,29.0,19.8,30.40,SSW,202,0.0,0.0,68,0.00,,---,0.00,VWS V14.00,2013-12-25 15:45:00,
2013-12-25 09:50:00,29.0,19.8,30.40,South,180,0.0,0.0,68,0.00,,---,0.00,VWS V14.00,2013-12-25 15:50:00,
2013-12-25 09:55:00,30.0,20.4,30.41,SW,225,0.0,0.0,67,0.00,,---,0.00,VWS V14.00,2013-12-25 15:55:00,
2013-12-25 10:00:00,30.0,19.7,30.41,SSW,202,0.0,0.0,65,0.00,,---,0.00,VWS V14.00,2013-12-25 16:00:00,
2013-12-25 10:05:00,31.0,20.6,30.40,SSW,202,0.0,0.0,65,0.00,,---,0.00,VWS V14.00,2013-12-25 16:05:00,
2013-12-25 10:10:00,31.0,20.6,30.41,SSW,202,0.0,0.0,65,0.00,,---,0.00,VWS V14.00,2013-12-25 16:10:00,
2013-12-25 10:15:00,31.0,20.3,30.40,SSW,202,0.0,0.0,64,0.00,,---,0.00,VWS V14.00,2013-12-25 16:15:00,
2013-12-25 10:20:00,32.0,20.9,30.40,SW,225,0.0,0.0,63,0.00,,---,0.00,VWS V14.00,2013-12-25 16:20:00,
2013-12-25 10:25:00,32.0,20.9,30.40,SW,225,0.0,0.0,63,0.00,,---,0.00,VWS V14.00,2013-12-25 16:25:00,
2013-12-25 10:30:00,32.0,20.5,30.40,SSW,202,0.0,0.0,62,0.00,,---,0.00,VWS V14.00,2013-12-25 16:30:00,
2013-12-25 10:35:00,32.0,20.9,30.40,SSW,202,0.0,0.0,63,0.00,,---,0.00,VWS V14.00,2013-12-25 16:35:00,
2013-12-25 10:40:00,32.0,20.5,30.39,SSW,202,0.0,0.0,62,0.00,,---,0.00,VWS V14.00,2013-12-25 16:40:00,
2013-12-25 10:44:00,33.0,21.8,30.39,SSW,202,0.0,0.0,63,0.00,,---,0.00,VWS V14.00,2013-12-25 16:44:00,
2013-12-25 10:49:00,33.0,21.0,30.39,South,180,0.0,0.0,61,0.00,,---,0.00,VWS V14.00,2013-12-25 16:49:00,
2013-12-25 10:54:00,33.0,21.4,30.39,SSW,202,0.0,0.0,62,0.00,,---,0.00,VWS V14.00,2013-12-25 16:54:00,
2013-12-25 10:59:00,33.0,21.8,30.38,SSW,202,0.0,0.0,63,0.00,,---,0.00,VWS V14.00,2013-12-25 16:59:00,
2013-12-25 11:04:00,33.0,21.8,30.38,SSW,202,0.0,0.0,63,0.00,,---,0.00,VWS V14.00,2013-12-25 17:04:00,
2013-12-25 11:09:00,33.0,21.8,30.38,SSW,202,0.0,0.0,63,0.00,,---,0.00,VWS V14.00,2013-12-25 17:09:00,
2013-12-25 11:14:00,34.0,22.4,30.37,SSW,202,0.0,0.0,62,0.00,,---,0.00,VWS V14.00,2013-12-25 17:14:00,
2013-12-25 11:19:00,34.0,22.4,30.37,SSW,202,0.0,0.0,62,0.00,,---,0.00,VWS V14.00,2013-12-25 17:19:00,
2013-12-25 11:24:00,34.0,22.4,30.37,South,180,0.0,0.0,62,0.00,,---,0.00,VWS V14.00,2013-12-25 17:24:00,
2013-12-25 11:29:00,34.0,22.0,30.37,SSW,202,0.0,0.0,61,0.00,,---,0.00,VWS V14.00,2013-12-25 17:29:00,
2013-12-25 11:34:00,35.0,22.9,30.36,SSW,202,0.0,0.0,61,0.00,,---,0.00,VWS V14.00,2013-12-25 17:34:00,
2013-12-25 11:39:00,35.0,23.3,30.36,SSW,202,0.0,0.0,62,0.00,,---,0.00,VWS V14.00,2013-12-25 17:39:00,
2013-12-25 11:44:00,35.0,22.9,30.36,SSW,202,0.0,0.0,61,0.00,,---,0.00,VWS V14.00,2013-12-25 17:44:00,
2013-12-25 11:49:00,35.0,22.5,30.35,SW,225,0.0,0.0,60,0.00,,---,0.00,VWS V14.00,2013-12-25 17:49:00,
2013-12-25 11:54:00,36.0,23.5,30.35,SW,225,0.0,0.0,60,0.00,,---,0.00,VWS V14.00,2013-12-25 17:54:00,
2013-12-25 11:59:00,36.0,23.1,30.34,SW,225,0.0,0.0,59,0.00,,---,0.00,VWS V14.00,2013-12-25 17:59:00,
2013-12-25 12:04:00,35.0,22.1,30.34,SW,225,0.0,0.0,59,0.00,,---,0.00,VWS V14.00,2013-12-25 18:04:00,
2013-12-25 12:09:00,36.0,23.9,30.34,SW,225,0.0,0.0,61,0.00,,---,0.00,VWS V14.00,2013-12-25 18:09:00,
2013-12-25 12:14:00,36.0,23.5,30.34,SW,225,0.0,0.0,60,0.00,,---,0.00,VWS V14.00,2013-12-25 18:14:00,
2013-12-25 12:19:00,36.0,23.5,30.33,WSW,248,0.0,0.0,60,0.00,,---,0.00,VWS V14.00,2013-12-25 18:19:00,
2013-12-25 12:24:00,36.0,23.5,30.33,SW,225,0.0,0.0,60,0.00,,---,0.00,VWS V14.00,2013-12-25 18:24:00,
2013-12-25 12:29:00,36.0,24.3,30.33,SW,225,0.0,0.0,62,0.00,,---,0.00,VWS V14.00,2013-12-25 18:29:00,
2013-12-25 12:34:00,36.0,23.5,30.32,SW,225,0.0,0.0,60,0.00,,---,0.00,VWS V14.00,2013-12-25 18:34:00,
2013-12-25 12:39:00,36.0,23.5,30.32,SSW,202,0.0,0.0,60,0.00,,---,0.00,VWS V14.00,2013-12-25 18:39:00,
2013-12-25 12:44:00,36.0,23.9,30.32,SSW,202,0.0,0.0,61,0.00,,---,0.00,VWS V14.00,2013-12-25 18:44:00,
2013-12-25 12:49:00,36.0,23.9,30.32,SW,225,0.0,0.0,61,0.00,,---,0.00,VWS V14.00,2013-12-25 18:49:00,
2013-12-25 12:54:00,36.0,23.9,30.32,SSW,202,0.0,0.0,61,0.00,,---,0.00,VWS V14.00,2013-12-25 18:54:00,
2013-12-25 12:59:00,36.0,24.3,30.32,WSW,248,0.0,0.0,62,0.00,,---,0.00,VWS V14.00,2013-12-25 18:59:00,
2013-12-25 13:04:00,36.0,23.9,30.32,SW,225,0.0,0.0,61,0.00,,---,0.00,VWS V14.00,2013-12-25 19:04:00,
2013-12-25 13:09:00,36.0,24.3,30.32,SW,225,0.0,0.0,62,0.00,,---,0.00,VWS V14.00,2013-12-25 19:09:00,
2013-12-25 13:14:00,37.0,25.2,30.32,SW,225,0.0,0.0,62,0.00,,---,0.00,VWS V14.00,2013-12-25 19:14:00,
2013-12-25 13:19:00,37.0,25.2,30.31,SW,225,0.0,0.0,62,0.00,,---,0.00,VWS V14.00,2013-12-25 19:19:00,
2013-12-25 13:24:00,36.0,23.9,30.31,SW,225,0.0,0.0,61,0.00,,---,0.00,VWS V14.00,2013-12-25 19:24:00,
2013-12-25 13:29:00,37.0,25.6,30.31,WSW,248,0.0,0.0,63,0.00,,---,0.00,VWS V14.00,2013-12-25 19:29:00,
2013-12-25 13:34:00,37.0,25.2,30.31,SW,225,0.0,0.0,62,0.00,,---,0.00,VWS V14.00,2013-12-25 19:34:00,
2013-12-25 13:39:00,37.0,24.8,30.31,SW,225,0.0,0.0,61,0.00,,---,0.00,VWS V14.00,2013-12-25 19:39:00,
2013-12-25 13:44:00,37.0,25.6,30.31,SW,225,0.0,0.0,63,0.00,,---,0.00,VWS V14.00,2013-12-25 19:44:00,
2013-12-25 13:49:00,37.0,25.2,30.30,SW,225,0.0,0.0,62,0.00,,---,0.00,VWS V14.00,2013-12-25 19:49:00,
2013-12-25 13:54:00,37.0,25.6,30.30,SW,225,0.0,0.0,63,0.00,,---,0.00,VWS V14.00,2013-12-25 19:54:00,
2013-12-25 13:59:00,37.0,25.6,30.30,SSW,202,0.0,0.0,63,0.00,,---,0.00,VWS V14.00,2013-12-25 19:59:00,
2013-12-25 14:04:00,37.0,25.6,30.30,SSW,202,0.0,0.0,63,0.00,,---,0.00,VWS V14.00,2013-12-25 20:04:00,
2013-12-25 14:09:00,37.0,25.6,30.30,SSW,202,0.0,0.0,63,0.00,,---,0.00,VWS V14.00,2013-12-25 20:09:00,
2013-12-25 14:14:00,37.0,25.6,30.30,SW,225,0.0,0.0,63,0.00,,---,0.00,VWS V14.00,2013-12-25 20:14:00,
2013-12-25 14:19:00,37.0,26.0,30.30,SSW,202,0.0,0.0,64,0.00,,---,0.00,VWS V14.00,2013-12-25 20:19:00,
2013-12-25 14:24:00,37.0,26.0,30.30,SW,225,0.0,0.0,64,0.00,,---,0.00,VWS V14.00,2013-12-25 20:24:00,
2013-12-25 14:29:00,37.0,26.0,30.30,SSW,202,0.0,0.0,64,0.00,,---,0.00,VWS V14.00,2013-12-25 20:29:00,
2013-12-25 14:34:00,37.0,26.7,30.30,SW,225,0.0,0.0,66,0.00,,---,0.00,VWS V14.00,2013-12-25 20:34:00,
2013-12-25 14:39:00,37.0,26.0,30.30,SSW,202,0.0,0.0,64,0.00,,---,0.00,VWS V14.00,2013-12-25 20:39:00,
2013-12-25 14:44:00,37.0,26.3,30.30,SW,225,0.0,0.0,65,0.00,,---,0.00,VWS V14.00,2013-12-25 20:44:00,
2013-12-25 14:49:00,37.0,26.0,30.30,SW,225,0.0,0.0,64,0.00,,---,0.00,VWS V14.00,2013-12-25 20:49:00,
2013-12-25 14:54:00,37.0,26.3,30.30,SSW,202,0.0,0.0,65,0.00,,---,0.00,VWS V14.00,2013-12-25 20:54:00,
2013-12-25 14:59:00,37.0,26.3,30.30,SSW,202,0.0,0.0,65,0.00,,---,0.00,VWS V14.00,2013-12-25 20:59:00,
2013-12-25 15:04:00,37.0,26.7,30.30,SW,225,0.0,0.0,66,0.00,,---,0.00,VWS V14.00,2013-12-25 21:04:00,
2013-12-25 15:09:00,37.0,26.7,30.30,SW,225,0.0,0.0,66,0.00,,---,0.00,VWS V14.00,2013-12-25 21:09:00,
2013-12-25 15:14:00,37.0,26.7,30.30,SSW,202,0.0,0.0,66,0.00,,---,0.00,VWS V14.00,2013-12-25 21:14:00,
2013-12-25 15:19:00,37.0,26.7,30.30,SSW,202,0.0,0.0,66,0.00,,---,0.00,VWS V14.00,2013-12-25 21:19:00,
2013-12-25 15:24:00,38.0,27.7,30.30,SSW,202,0.0,0.0,66,0.00,,---,0.00,VWS V14.00,2013-12-25 21:24:00,
2013-12-25 15:29:00,38.0,28.0,30.30,SW,225,0.0,0.0,67,0.00,,---,0.00,VWS V14.00,2013-12-25 21:29:00,
2013-12-25 15:34:00,37.0,26.7,30.30,SW,225,0.0,0.0,66,0.00,,---,0.00,VWS V14.00,2013-12-25 21:34:00,
2013-12-25 15:39:00,37.0,26.7,30.30,SW,225,0.0,0.0,66,0.00,,---,0.00,VWS V14.00,2013-12-25 21:39:00,
2013-12-25 15:44:00,37.0,27.1,30.30,SW,225,0.0,0.0,67,0.00,,---,0.00,VWS V14.00,2013-12-25 21:44:00,
2013-12-25 15:49:00,37.0,27.1,30.30,SSW,202,0.0,0.0,67,0.00,,---,0.00,VWS V14.00,2013-12-25 21:49:00,
2013-12-25 15:54:00,37.0,27.8,30.29,SW,225,0.0,0.0,69,0.00,,---,0.00,VWS V14.00,2013-12-25 21:54:00,
2013-12-25 15:59:00,37.0,27.4,30.30,SW,225,0.0,0.0,68,0.00,,---,0.00,VWS V14.00,2013-12-25 21:59:00,
2013-12-25 16:04:00,37.0,27.8,30.30,SSW,202,0.0,0.0,69,0.00,,---,0.00,VWS V14.00,2013-12-25 22:04:00,
2013-12-25 16:09:00,36.0,26.8,30.30,SW,225,0.0,0.0,69,0.00,,---,0.00,VWS V14.00,2013-12-25 22:09:00,
2013-12-25 16:14:00,36.0,26.8,30.30,SW,225,0.0,0.0,69,0.00,,---,0.00,VWS V14.00,2013-12-25 22:14:00,
2013-12-25 16:19:00,36.0,26.8,30.30,SW,225,0.0,0.0,69,0.00,,---,0.00,VWS V14.00,2013-12-25 22:19:00,
2013-12-25 16:24:00,36.0,27.2,30.31,SW,225,0.0,0.0,70,0.00,,---,0.00,VWS V14.00,2013-12-25 22:24:00,
2013-12-25 16:29:00,36.0,27.5,30.30,SW,225,0.0,0.0,71,0.00,,---,0.00,VWS V14.00,2013-12-25 22:29:00,
2013-12-25 16:34:00,36.0,27.9,30.30,SW,225,0.0,0.0,72,0.00,,---,0.00,VWS V14.00,2013-12-25 22:34:00,
2013-12-25 16:39:00,35.0,26.9,30.30,SW,225,0.0,0.0,72,0.00,,---,0.00,VWS V14.00,2013-12-25 22:39:00,
2013-12-25 16:44:00,35.0,27.2,30.31,WSW,248,0.0,0.0,73,0.00,,---,0.00,VWS V14.00,2013-12-25 22:44:00,
2013-12-25 16:49:00,35.0,27.2,30.32,WSW,248,0.0,0.0,73,0.00,,---,0.00,VWS V14.00,2013-12-25 22:49:00,
2013-12-25 16:54:00,35.0,27.2,30.33,WSW,248,0.0,0.0,73,0.00,,---,0.00,VWS V14.00,2013-12-25 22:54:00,
2013-12-25 16:59:00,35.0,27.6,30.33,WSW,248,0.0,0.0,74,0.00,,---,0.00,VWS V14.00,2013-12-25 22:59:00,
2013-12-25 17:04:00,35.0,27.9,30.33,SW,225,0.0,0.0,75,0.00,,---,0.00,VWS V14.00,2013-12-25 23:04:00,
2013-12-25 17:09:00,35.0,27.9,30.33,SW,225,0.0,0.0,75,0.00,,---,0.00,VWS V14.00,2013-12-25 23:09:00,
2013-12-25 17:14:00,35.0,27.9,30.34,SW,225,0.0,0.0,75,0.00,,---,0.00,VWS V14.00,2013-12-25 23:14:00,
2013-12-25 17:19:00,35.0,27.9,30.34,SW,225,0.0,0.0,75,0.00,,---,0.00,VWS V14.00,2013-12-25 23:19:00,
2013-12-25 17:24:00,35.0,27.9,30.34,SW,225,0.0,0.0,75,0.00,,---,0.00,VWS V14.00,2013-12-25 23:24:00,
2013-12-25 17:29:00,35.0,28.2,30.34,SSW,202,0.0,0.0,76,0.00,,---,0.00,VWS V14.00,2013-12-25 23:29:00,
2013-12-25 17:34:00,35.0,28.2,30.34,SW,225,0.0,0.0,76,0.00,,---,0.00,VWS V14.00,2013-12-25 23:34:00,
2013-12-25 17:39:00,35.0,28.2,30.34,SW,225,0.0,0.0,76,0.00,,---,0.00,VWS V14.00,2013-12-25 23:39:00,
2013-12-25 17:44:00,35.0,28.2,30.34,SW,225,0.0,0.0,76,0.00,,---,0.00,VWS V14.00,2013-12-25 23:44:00,
2013-12-25 17:49:00,35.0,28.2,30.34,SW,225,0.0,0.0,76,0.00,,---,0.00,VWS V14.00,2013-12-25 23:49:00,
2013-12-25 17:54:00,35.0,28.2,30.34,SW,225,0.0,0.0,76,0.00,,---,0.00,VWS V14.00,2013-12-25 23:54:00,
2013-12-25 17:59:00,35.0,28.5,30.34,SW,225,0.0,0.0,77,0.00,,---,0.00,VWS V14.00,2013-12-25 23:59:00,
2013-12-25 18:04:00,34.0,27.6,30.33,SSW,202,0.0,0.0,77,0.00,,---,0.00,VWS V14.00,2013-12-26 00:04:00,
2013-12-25 18:09:00,34.0,27.6,30.33,SW,225,0.0,0.0,77,0.00,,---,0.00,VWS V14.00,2013-12-26 00:09:00,
2013-12-25 18:14:00,34.0,27.9,30.33,SW,225,0.0,0.0,78,0.00,,---,0.00,VWS V14.00,2013-12-26 00:14:00,
2013-12-25 18:19:00,34.0,27.9,30.33,SW,225,0.0,0.0,78,0.00,,---,0.00,VWS V14.00,2013-12-26 00:19:00,
2013-12-25 18:24:00,34.0,27.9,30.33,WSW,248,0.0,0.0,78,0.00,,---,0.00,VWS V14.00,2013-12-26 00:24:00,
2013-12-25 18:29:00,34.0,27.9,30.33,WSW,248,0.0,0.0,78,0.00,,---,0.00,VWS V14.00,2013-12-26 00:29:00,
2013-12-25 18:34:00,34.0,27.9,30.33,SSW,202,0.0,0.0,78,0.00,,---,0.00,VWS V14.00,2013-12-26 00:34:00,
2013-12-25 18:44:00,34.0,28.2,30.32,South,180,0.0,0.0,79,0.00,,---,0.00,VWS V14.00,2013-12-26 00:44:00,
2013-12-25 18:49:00,34.0,28.2,30.32,SSW,202,0.0,0.0,79,0.00,,---,0.00,VWS V14.00,2013-12-26 00:49:00,
2013-12-25 18:54:00,34.0,28.5,30.32,South,180,0.0,0.0,80,0.00,,---,0.00,VWS V14.00,2013-12-26 00:54:00,
2013-12-25 18:59:00,34.0,28.5,30.33,South,180,0.0,0.0,80,0.00,,---,0.00,VWS V14.00,2013-12-26 00:59:00,
2013-12-25 19:04:00,33.0,27.5,30.32,SSW,202,0.0,0.0,80,0.00,,---,0.00,VWS V14.00,2013-12-26 01:04:00,
2013-12-25 19:09:00,33.0,27.5,30.33,SSW,202,0.0,0.0,80,0.00,,---,0.00,VWS V14.00,2013-12-26 01:09:00,
2013-12-25 19:14:00,33.0,27.5,30.32,SSW,202,0.0,0.0,80,0.00,,---,0.00,VWS V14.00,2013-12-26 01:14:00,
2013-12-25 19:19:00,33.0,27.8,30.32,South,180,0.0,0.0,81,0.00,,---,0.00,VWS V14.00,2013-12-26 01:19:00,
2013-12-25 19:24:00,33.0,27.8,30.32,SSW,202,0.0,0.0,81,0.00,,---,0.00,VWS V14.00,2013-12-26 01:24:00,
2013-12-25 19:29:00,33.0,27.8,30.32,SW,225,0.0,0.0,81,0.00,,---,0.00,VWS V14.00,2013-12-26 01:29:00,
2013-12-25 19:34:00,33.0,27.8,30.32,SW,225,0.0,0.0,81,0.00,,---,0.00,VWS V14.00,2013-12-26 01:34:00,
2013-12-25 19:39:00,33.0,27.8,30.32,SSW,202,0.0,0.0,81,0.00,,---,0.00,VWS V14.00,2013-12-26 01:39:00,
2013-12-25 19:44:00,33.0,27.8,30.32,SSW,202,0.0,0.0,81,0.00,,---,0.00,VWS V14.00,2013-12-26 01:44:00,
2013-12-25 19:49:00,33.0,28.1,30.32,SSW,202,0.0,0.0,82,0.00,,---,0.00,VWS V14.00,2013-12-26 01:49:00,
2013-12-25 19:54:00,33.0,28.1,30.32,SSW,202,0.0,0.0,82,0.00,,---,0.00,VWS V14.00,2013-12-26 01:54:00,
2013-12-25 19:59:00,33.0,28.4,30.33,SSW,202,0.0,0.0,83,0.00,,---,0.00,VWS V14.00,2013-12-26 01:59:00,
2013-12-25 20:04:00,33.0,28.4,30.32,SSW,202,0.0,0.0,83,0.00,,---,0.00,VWS V14.00,2013-12-26 02:04:00,
2013-12-25 20:09:00,32.0,27.4,30.32,SSW,202,0.0,0.0,83,0.00,,---,0.00,VWS V14.00,2013-12-26 02:09:00,
2013-12-25 20:14:00,32.0,27.7,30.32,SSW,202,0.0,0.0,84,0.00,,---,0.00,VWS V14.00,2013-12-26 02:14:00,
2013-12-25 20:19:00,32.0,28.0,30.32,SSW,202,0.0,0.0,85,0.00,,---,0.00,VWS V14.00,2013-12-26 02:19:00,
2013-12-25 20:24:00,32.0,28.0,30.32,SSW,202,0.0,0.0,85,0.00,,---,0.00,VWS V14.00,2013-12-26 02:24:00,
2013-12-25 20:29:00,32.0,28.3,30.32,South,180,0.0,0.0,86,0.00,,---,0.00,VWS V14.00,2013-12-26 02:29:00,
2013-12-25 20:34:00,32.0,28.3,30.32,South,180,0.0,0.0,86,0.00,,---,0.00,VWS V14.00,2013-12-26 02:34:00,
2013-12-25 20:39:00,32.0,28.3,30.32,SSW,202,0.0,0.0,86,0.00,,---,0.00,VWS V14.00,2013-12-26 02:39:00,
2013-12-25 20:44:00,32.0,28.3,30.32,SW,225,0.0,0.0,86,0.00,,---,0.00,VWS V14.00,2013-12-26 02:44:00,
2013-12-25 20:49:00,32.0,28.3,30.32,SW,225,0.0,0.0,86,0.00,,---,0.00,VWS V14.00,2013-12-26 02:49:00,
2013-12-25 20:54:00,32.0,28.3,30.32,SW,225,0.0,0.0,86,0.00,,---,0.00,VWS V14.00,2013-12-26 02:54:00,
2013-12-25 20:59:00,32.0,28.3,30.32,SW,225,0.0,0.0,86,0.00,,---,0.00,VWS V14.00,2013-12-26 02:59:00,
2013-12-25 21:04:00,32.0,28.6,30.32,SSW,202,0.0,0.0,87,0.00,,---,0.00,VWS V14.00,2013-12-26 03:04:00,
2013-12-25 21:09:00,32.0,28.6,30.32,SSW,202,0.0,0.0,87,0.00,,---,0.00,VWS V14.00,2013-12-26 03:09:00,
2013-12-25 21:14:00,32.0,28.6,30.32,SSW,202,0.0,0.0,87,0.00,,---,0.00,VWS V14.00,2013-12-26 03:14:00,
2013-12-25 21:19:00,32.0,28.9,30.32,SSW,202,0.0,0.0,88,0.00,,---,0.00,VWS V14.00,2013-12-26 03:19:00,
2013-12-25 21:24:00,32.0,28.9,30.32,SSW,202,0.0,0.0,88,0.00,,---,0.00,VWS V14.00,2013-12-26 03:24:00,
2013-12-25 21:29:00,32.0,28.9,30.32,SSW,202,0.0,0.0,88,0.00,,---,0.00,VWS V14.00,2013-12-26 03:29:00,
2013-12-25 21:34:00,32.0,28.9,30.33,SW,225,0.0,0.0,88,0.00,,---,0.00,VWS V14.00,2013-12-26 03:34:00,
2013-12-25 21:39:00,32.0,28.9,30.33,SW,225,0.0,0.0,88,0.00,,---,0.00,VWS V14.00,2013-12-26 03:39:00,
2013-12-25 21:44:00,32.0,28.9,30.33,SW,225,0.0,0.0,88,0.00,,---,0.00,VWS V14.00,2013-12-26 03:44:00,
2013-12-25 21:49:00,32.0,28.9,30.33,SW,225,0.0,0.0,88,0.00,,---,0.00,VWS V14.00,2013-12-26 03:49:00,
2013-12-25 21:54:00,32.0,28.9,30.33,WSW,248,0.0,0.0,88,0.00,,---,0.00,VWS V14.00,2013-12-26 03:54:00,
2013-12-25 21:59:00,32.0,29.1,30.33,SW,225,0.0,0.0,89,0.00,,---,0.00,VWS V14.00,2013-12-26 03:59:00,
2013-12-25 22:04:00,32.0,29.1,30.33,SW,225,0.0,0.0,89,0.00,,---,0.00,VWS V14.00,2013-12-26 04:04:00,
2013-12-25 22:09:00,32.0,29.1,30.33,SW,225,0.0,0.0,89,0.00,,---,0.00,VWS V14.00,2013-12-26 04:09:00,
2013-12-25 22:14:00,32.0,29.1,30.33,SW,225,0.0,0.0,89,0.00,,---,0.00,VWS V14.00,2013-12-26 04:14:00,
2013-12-25 22:19:00,32.0,29.4,30.33,WSW,248,0.0,0.0,90,0.00,,---,0.00,VWS V14.00,2013-12-26 04:19:00,
2013-12-25 22:24:00,32.0,29.4,30.33,SW,225,0.0,0.0,90,0.00,,---,0.00,VWS V14.00,2013-12-26 04:24:00,
2013-12-25 22:29:00,32.0,29.4,30.33,SW,225,0.0,0.0,90,0.00,,---,0.00,VWS V14.00,2013-12-26 04:29:00,
2013-12-25 22:34:00,32.0,29.4,30.33,SW,225,0.0,0.0,90,0.00,,---,0.00,VWS V14.00,2013-12-26 04:34:00,
2013-12-25 22:39:00,31.0,28.4,30.33,SW,225,0.0,0.0,90,0.00,,---,0.00,VWS V14.00,2013-12-26 04:39:00,
2013-12-25 22:44:00,31.0,28.7,30.33,WSW,248,0.0,0.0,91,0.00,,---,0.00,VWS V14.00,2013-12-26 04:44:00,
2013-12-25 22:49:00,31.0,28.7,30.33,WSW,248,0.0,0.0,91,0.00,,---,0.00,VWS V14.00,2013-12-26 04:49:00,
2013-12-25 22:54:00,31.0,28.7,30.34,West,270,0.0,0.0,91,0.00,,---,0.00,VWS V14.00,2013-12-26 04:54:00,
2013-12-25 22:59:00,31.0,28.7,30.34,WNW,292,0.0,0.0,91,0.00,,---,0.00,VWS V14.00,2013-12-26 04:59:00,
2013-12-25 23:01:00,30.0,27.7,30.34,WNW,292,0.0,0.0,91,0.00,,---,0.00,VWS V14.00,2013-12-26 05:01:00,
2013-12-25 23:06:00,30.0,28.0,30.34,WNW,292,0.0,0.0,92,0.00,,---,0.00,VWS V14.00,2013-12-26 05:06:00,
2013-12-25 23:11:00,30.0,28.0,30.34,NW,315,0.0,0.0,92,0.00,,---,0.00,VWS V14.00,2013-12-26 05:11:00,
2013-12-25 23:16:00,30.0,28.2,30.35,WNW,292,0.0,0.0,93,0.00,,---,0.00,VWS V14.00,2013-12-26 05:16:00,
2013-12-25 23:21:00,30.0,28.2,30.34,WNW,292,0.0,0.0,93,0.00,,---,0.00,VWS V14.00,2013-12-26 05:21:00,
2013-12-25 23:26:00,29.0,27.2,30.35,WNW,292,0.0,0.0,93,0.00,,---,0.00,VWS V14.00,2013-12-26 05:26:00,
2013-12-25 23:31:00,29.0,27.5,30.35,WNW,292,0.0,0.0,94,0.00,,---,0.00,VWS V14.00,2013-12-26 05:31:00,
2013-12-25 23:36:00,29.0,27.5,30.35,WNW,292,0.0,0.0,94,0.00,,---,0.00,VWS V14.00,2013-12-26 05:36:00,
2013-12-25 23:41:00,29.0,27.5,30.35,NW,315,0.0,0.0,94,0.00,,---,0.00,VWS V14.00,2013-12-26 05:41:00,
2013-12-25 23:46:00,29.0,27.8,30.35,WNW,292,0.0,0.0,95,0.00,,---,0.00,VWS V14.00,2013-12-26 05:46:00,
2013-12-25 23:51:00,29.0,27.8,30.35,WNW,292,0.0,0.0,95,0.00,,---,0.00,VWS V14.00,2013-12-26 05:51:00,
2013-12-25 23:56:00,29.0,27.8,30.35,WNW,292,0.0,0.0,95,0.00,,---,0.00,VWS V14.00,2013-12-26 05:56:00,